Overview Statistics Trail Chart Weather Telemetry Raw packets
 

This is the latest recevied weather packets stored in our database for station/object KW6V-15. If no packets are shown the sender has not sent any weather packets the latest 10 day(s).

<< 1 2 3 4 5 6 >>
Time Temp. Humidity Pressure Rain* Wind** Luminosity Snow
1788552028 20° C 75% 1015.3 hPa 0 mm - - -
1788550225 20° C 75% 1015.4 hPa 0 mm - - -
1788548421 19.44° C 78% 1015.2 hPa 0 mm - - -
1788546639 18.33° C 81% 1015.2 hPa 0 mm - - -
1788544840 17.22° C 85% 1015 hPa 0 mm - - -
1788543018 15° C 93% 1015 hPa 0 mm - - -
1788541221 13.89° C 93% 1014.9 hPa 0 mm - - -
1788539434 13.33° C 93% 1014.7 hPa 0 mm - - -
1788537658 12.78° C 93% 1014.7 hPa 0 mm - - -
1788535837 12.22° C 93% 1014.6 hPa 0 mm - - -
1788534039 12.22° C 93% 1014.1 hPa 0 mm - - -
1788532227 12.22° C 93% 1013.8 hPa 0 mm - - -
1788530420 12.22° C 93% 1013.7 hPa 0 mm - - -
1788528647 12.22° C 93% 1013.5 hPa 0 mm - - -
1788526824 12.22° C 93% 1013.3 hPa 0 mm - - -
1788525023 11.67° C 93% 1013.2 hPa 0 mm - - -
1788523225 11.11° C 93% 1013.1 hPa 0 mm - - -
1788521426 10.56° C 93% 1013.2 hPa 0 mm - - -
1788519621 10.56° C 92% 1013.3 hPa 0 mm - - -
1788517834 10° C 92% 1013.2 hPa 0 mm - - -
1788516036 10° C 92% 1013.1 hPa 0 mm - - -
1788514225 10° C 92% 1013.1 hPa 0 mm - - -
1788510625 11.11° C 92% 1013.3 hPa 0 mm - - -
1788508830 11.67° C 92% 1013.3 hPa 0 mm - - -
1788507046 11.67° C 92% 1013.2 hPa 0 mm - - -

* Rain latest hour (hover to see other rain measurements)
** Current wind speed in m/s (hover to see current wind gust speed)